YAOGAN 17A

导读

YAOGAN 17A即遥感卫星十七号A,由中国航天科技集团五院研发,于2013年9月1日在酒泉卫星发射中心,由长征四号丙运载火箭发射,与YAOGAN 17B、YAOGAN 17C组网入轨。卫星运行于近地点1060km、远地点1119km,倾角63.4°的近地轨道,主要用于开展科学试验、开展国土资源普查、农作物估产和防灾减灾等任务,是中国遥感卫星系列组网的重要组成。

Basic Information
目录编号:
39239
目录名称:
YAOGAN 17A
国际标识:
2013-046A
轨道中心:
EARTH
卫星名称:
YAOGAN 17A
卫星全名:
--
卫星状态:
在轨 (已飞行4667 天)
发射日期:
2013-09-01 UTC
国别 :
中国 (CN)
星等 :
--
Orbit Information
数据来源 国际轨道数据 AOE轨道数据
星历时间 2026-06-12T15:46:14+0800
15小时前
查看轨道信息
2026-06-11T03:00:00+0800
2天前
查看轨道信息
半长轴 7466.974km 7466.979km
偏心率 0.0425925 0.0425961
轨道倾角 63.385° 63.386°
近地点辐角 11.852° 11.839°
升交点赤经 102.783° 106.735°
平近点角 349.216° 127.974°
近地点 770.799km 770.777km
远地点 1406.875km 1406.907km
周期 107.023分钟 107.023分钟
每日圈数 13.455067 13.455054
Detailed Information
使用方式:
暂无
2D Orbit Map
3D Orbit Map
Orbit Altitude Analysis Chart
Orbit Inclination Analysis Chart
Orbit Comprehensive Analysis Chart
View Comprehensive Chart